Dewpoint
66 68 69 68 69 69 68 70 69 68 66 67 66 66 65 65 62 62 64 64 65 64 64 65 66 65 64 65 62 65 67 66 65 68 70 71 71 71 71 72 74 73 73 73 73 72 73 72 72 72 73 72 70 70 69 69 71 70 72 71 70 73 73 74 71 70 71 71 70 70 68 69 68 69 67 67 68 67 66 64 62 60 59 60 61
66 67 68 69 68 67 68 68 69 68 66 65 66 65 65 65 64 64 62 64 65 64 65 64 65 65 65 64 65 63 66 69 66 66 68 69 70 68 68 71 74 74 73 74 75 74 72 75 75 72 73 73 72 71 70 68 67 67 72 71 71 72 75 73 72 71 70 71 70 69 68 68 67 64 63 63 66 66 65 62 60 60 59 60 60
68 69 68 68 68 67 67 67 67 67 66 65 64 64 64 64 65 64 62 62 64 65 64 64 65 66 66 65 66 65 67 65 67 67 67 68 70 71 71 71 73 72 71 73 74 76 74 74 74 74 72 72 72 72 71 70 69 70 71 71 72 73 73 75 74 71 71 70 70 68 68 68 68 67 67 65 65 63 64 62 60 60 59 59 59
71 70 69 69 68 67 67 66 65 66 65 65 64 64 63 63 64 64 63 62 62 64 64 64 65 68 65 67 66 67 66 66 66 67 67 67 69 72 72 71 72 72 72 72 73 74 76 75 74 73 73 73 73 73 73 72 72 72 71 73 74 74 74 74 75 73 72 69 69 68 67 67 67 68 67 65 63 63 63 63 61 59 57 56 57
72 72 71 71 69 70 68 66 65 65 65 64 64 63 63 63 64 64 63 62 62 62 64 65 66 66 64 65 66 67 66 66 67 66 66 68 70 70 72 72 72 73 72 72 73 74 75 74 74 73 74 73 74 73 73 74 72 71 71 72 73 74 74 74 74 73 71 69 67 67 67 66 66 67 66 64 64 63 64 63 59 57 55 53 54
73 72 72 71 71 71 69 68 66 66 65 64 64 64 63 64 64 64 64 64 64 62 63 64 64 65 65 66 65 65 66 66 67 68 66 66 68 71 71 72 72 73 72 71 72 74 74 74 74 74 73 73 72 73 75 75 73 71 72 73 72 73 74 74 73 73 72 69 67 65 65 63 65 65 64 63 62 60 59 59 58 57 56 54 54
73 73 72 71 71 71 70 70 69 68 67 65 64 64 64 63 63 63 64 64 64 62 62 64 65 64 65 65 65 66 66 66 69 69 69 69 68 69 71 71 72 72 71 70 70 72 74 74 75 75 75 74 73 73 74 74 73 72 72 73 72 73 73 73 73 72 70 67 66 66 65 63 63 62 63 64 62 60 58 56 57 57 58 57 55
74 73 73 73 72 71 71 71 71 71 70 71 68 65 64 64 64 65 65 65 64 63 62 61 62 64 64 64 66 68 68 68 69 70 70 69 69 67 71 72 70 73 71 72 70 73 75 75 75 75 75 74 74 73 74 74 74 72 72 72 71 71 72 71 70 70 68 67 65 64 63 63 62 63 63 64 62 61 60 59 60 60 59 59 57
74 74 73 73 73 73 72 72 72 73 73 72 72 70 68 68 69 68 68 66 64 64 63 62 62 62 63 64 66 68 68 68 67 69 69 69 69 67 70 71 72 72 74 72 75 76 76 76 75 75 76 75 75 75 74 74 74 73 72 71 71 71 72 71 69 69 68 66 65 64 62 62 62 61 60 61 61 61 61 62 62 60 59 56 55
73 73 72 73 73 74 73 74 73 74 74 74 73 73 72 71 70 70 70 70 69 69 67 65 62 61 62 64 66 67 68 68 71 72 72 69 68 67 69 71 73 74 75 77 76 77 76 75 75 75 75 75 75 74 74 73 73 73 72 71 71 71 70 70 69 68 68 66 64 63 62 61 59 60 60 61 62 60 58 59 58 55 55 54 54
72 72 72 73 73 74 74 73 74 74 74 74 74 74 73 72 72 72 71 70 71 71 68 67 66 63 62 63 66 66 66 68 71 68 68 71 70 69 70 71 75 75 77 77 76 76 75 75 75 75 75 74 74 73 73 72 71 71 71 71 69 71 70 69 68 67 66 65 64 64 63 62 59 59 59 58 57 57 57 57 53 52 51 50 49
72 72 72 73 72 73 73 73 74 74 73 73 74 75 75 75 74 72 71 70 72 71 71 70 69 67 67 65 64 65 66 68 66 67 68 67 71 68 66 68 72 76 77 75 74 73 73 73 74 75 73 73 73 73 72 71 70 70 70 70 71 69 70 71 69 68 67 66 65 64 62 61 60 59 56 55 56 56 56 55 54 52 53 52 50
73 72 72 73 73 72 73 73 73 73 73 73 73 74 75 75 75 74 73 72 71 71 72 71 70 68 67 66 65 65 66 67 64 66 66 66 67 71 65 68 76 73 73 74 74 74 74 73 73 74 74 74 72 71 71 71 69 68 67 67 66 66 64 66 68 69 67 67 65 64 63 63 61 58 54 55 58 58 58 57 58 57 56 53 51
72 72 72 72 73 73 73 73 73 73 73 73 73 74 74 73 73 75 74 74 73 72 71 71 71 72 70 69 69 66 65 67 64 64 64 65 65 69 70 66 73 72 73 74 74 74 74 74 73 73 73 73 72 71 70 70 69 68 69 69 68 65 64 63 64 65 66 66 67 65 65 63 60 58 59 60 59 58 56 55 55 55 54 54 54
73 72 72 72 72 72 72 72 72 72 72 72 73 73 73 72 72 73 73 73 72 72 72 72 72 72 71 70 68 66 63 64 62 62 62 62 64 68 70 71 72 72 73 74 74 74 74 73 73 73 73 72 72 71 69 68 68 67 67 66 66 65 65 65 66 65 65 66 65 65 64 62 61 61 61 61 60 58 55 55 54 54 52 52 51
71 72 72 72 72 73 72 72 72 72 72 72 72 73 73 74 73 73 73 74 73 73 73 73 72 72 72 71 70 69 67 63 62 61 61 61 64 70 71 75 73 73 73 74 74 74 74 73 73 73 73 72 72 69 69 69 68 66 65 64 62 61 60 59 59 61 65 65 65 64 63 63 62 61 60 58 59 58 56 52 51 51 49 47 44
71 71 71 71 71 71 71 72 71 71 71 71 71 71 72 73 73 74 73 74 74 74 74 73 73 73 73 73 72 71 70 67 61 59 59 60 65 71 73 73 73 73 73 73 73 74 73 73 73 73 72 72 68 63 65 66 66 65 64 62 60 58 56 57 58 58 57 56 56 57 57 57 57 56 56 57 56 55 51 50 48 47 49 47 45
70 70 70 70 71 71 71 71 70 70 71 71 70 71 71 72 72 73 73 73 74 74 74 74 73 74 73 73 72 72 72 71 61 58 58 59 67 72 73 72 72 72 72 72 72 73 72 72 73 73 72 72 62 60 62 66 66 64 61 59 58 56 55 54 55 55 57 57 57 57 56 56 56 57 57 57 58 52 54 49 44 46 46 44 43
69 69 70 70 70 71 71 71 71 71 71 71 71 71 71 72 72 73 73 72 72 73 73 73 73 73 73 73 72 72 73 72 60 58 57 57 66 73 73 72 72 72 71 72 72 73 73 72 71 72 71 69 58 59 61 66 65 62 60 59 57 57 57 57 56 56 56 56 56 55 56 56 57 56 56 57 56 54 52 49 48 47 45 43 43
70 70 70 70 70 70 71 70 70 71 71 70 71 71 71 71 71 72 73 72 72 71 72 72 72 74 73 73 73 73 73 74 73 57 55 56 60 72 73 72 71 72 71 71 71 72 73 72 70 65 61 56 55 56 57 60 63 61 59 57 56 55 57 58 59 59 58 57 58 58 57 56 53 53 52 51 52 53 52 51 50 50 47 46 45
70 69 69 69 69 69 69 70 69 70 70 70 71 70 71 71 71 71 71 71 71 72 72 72 72 72 73 72 74 74 73 73 73 57 55 55 59 67 73 72 72 72 72 71 70 69 70 71 70 59 54 54 54 54 54 56 60 61 60 59 57 57 57 57 58 59 58 58 57 55 54 52 51 50 49 48 46 46 46 46 46 45 47 46 42
69 69 68 68 68 69 69 69 69 68 69 69 69 69 70 70 69 70 70 70 70 70 71 72 72 72 73 73 73 72 74 73 74 60 56 55 56 60 71 72 72 72 71 71 70 70 69 67 63 56 53 53 52 51 52 53 57 61 60 53 54 56 57 58 57 56 55 54 53 51 50 47 45 46 46 46 43 44 42 44 44 46 51 51 49
68 68 68 67 67 67 68 67 67 67 67 68 68 68 69 68 69 69 69 69 69 69 69 70 70 72 73 73 73 73 73 73 70 69 55 53 54 57 62 69 65 73 70 69 70 69 67 62 60 56 51 49 49 50 51 52 56 55 50 52 54 56 58 57 56 55 54 53 52 51 50 48 47 46 46 46 46 49 47 48 48 48 50 50 49
68 67 67 66 66 66 66 66 66 66 65 66 66 67 67 67 68 68 68 69 69 69 69 69 69 70 71 72 72 71 69 71 69 66 61 54 54 55 57 61 62 70 72 70 69 66 62 60 57 50 48 47 48 50 51 54 55 49 51 53 54 56 58 57 56 56 55 54 53 52 50 48 48 48 48 48 48 51 49 50 51 51 49 47 48
67 66 65 65 65 65 65 65 64 64 64 64 66 65 65 66 66 67 67 67 68 67 68 68 69 69 70 70 68 67 68 67 67 65 61 58 55 55 57 58 58 60 70 70 67 66 60 54 49 48 48 48 49 50 51 52 50 51 52 53 57 57 57 57 56 55 55 53 52 51 49 49 49 49 51 51 51 49 49 46 46 48 49 49 48
67 66 65 65 64 64 64 63 63 64 64 63 64 64 64 63 64 64 64 65 66 66 67 67 67 67 67 66 66 67 66 67 66 65 63 62 60 56 56 56 59 56 59 61 54 51 49 49 49 49 51 52 56 55 55 55 53 55 55 56 57 57 57 57 56 55 53 52 51 49 49 49 49 52 52 51 50 47 47 47 46 44 45 45 45
66 66 66 64 65 65 64 63 61 61 62 61 61 61 62 62 62 63 62 61 62 62 63 63 65 67 65 65 65 65 65 65 66 65 65 64 62 59 58 57 55 56 58 58 56 55 54 55 54 53 53 54 55 55 56 56 57 58 58 57 57 57 57 56 56 54 54 50 49 49 49 49 51 51 50 49 48 48 49 49 46 44 46 45 46
65 65 64 64 64 64 63 63 62 60 61 61 59 59 61 60 60 61 61 61 61 62 62 62 62 62 63 64 64 64 65 65 65 65 65 64 62 61 61 61 59 58 56 56 56 56 56 56 55 57 55 56 56 56 56 57 57 57 56 57 58 57 57 55 54 54 52 50 49 50 50 51 49 48 47 46 46 47 49 47 46 45 44 47 45
65 64 64 63 64 64 62 62 61 61 61 61 59 59 60 61 61 62 60 59 58 57 59 60 61 61 61 63 64 64 63 63 63 53 64 58 62 61 61 60 58 58 57 53 56 56 56 56 56 56 55 55 55 54 55 55 55 55 51 52 51 52 52 50 50 51 52 52 51 50 49 47 47 47 46 46 47 47 50 49 49 47 48 47 43
65 65 63 63 62 62 61 61 62 61 59 60 59 56 51 47 50 57 58 54 49 45 47 57 57 61 61 61 61 61 62 62 47 46 46 47 51 54 54 52 52 54 52 52 55 57 57 56 56 56 54 54 54 54 55 55 54 54 52 51 49 49 50 51 52 51 52 51 50 48 47 47 46 46 46 46 47 46 47 49 49 49 47 45 44
65 64 64 63 63 63 62 61 62 63 62 61 62 61 59 56 43 44 49 49 46 43 43 43 46 53 61 59 55 48 48 46 44 44 44 45 46 47 47 47 47 48 50 57 57 56 56 56 55 55 55 55 55 55 55 56 54 50 48 48 48 49 50 50 50 50 50 48 47 47 47 46 46 46 46 45 45 44 44 46 46 47 45 44 43
65 63 63 64 64 64 63 63 63 63 64 64 64 63 63 61 58 45 44 46 45 43 42 42 42 46 51 55 58 56 48 45 44 44 45 45 45 45 45 46 46 48 49 51 55 56 56 56 56 56 56 56 56 56 56 53 51 50 49 47 47 47 47 48 50 47 47 46 46 46 46 46 45 45 45 44 44 42 43 44 44 44 43 43 44
64 64 64 64 64 64 64 64 64 63 63 63 63 63 62 61 61 60 55 44 44 44 42 43 43 43 44 45 46 48 46 45 45 45 45 45 45 45 46 46 47 47 50 55 55 54 54 54 53 54 54 54 54 54 53 51 50 49 47 47 46 46 47 50 51 47 47 46 46 45 45 45 44 45 44 44 43 43 43 43 43 44 43 44 44
65 64 64 64 64 64 64 64 64 64 64 64 64 63 63 63 62 62 61 58 54 48 45 42 42 45 43 43 44 44 44 45 45 45 45 46 46 47 49 53 46 49 52 56 55 54 54 52 52 52 52 53 51 51 50 49 48 47 47 47 47 49 52 53 51 48 46 45 45 44 44 43 44 43 44 43 43 43 42 44 43 43 43 42 42
66 64 63 65 65 64 64 64 63 63 63 64 64 63 62 63 63 62 61 61 61 60 58 56 48 42 50 47 43 44 44 45 45 45 45 46 46 47 49 57 56 56 56 57 56 54 54 53 52 52 52 51 50 49 48 48 47 47 48 49 49 51 50 48 47 48 46 45 45 44 44 44 44 44 43 43 43 42 43 42 42 43 44 43 43
64 63 64 63 65 64 63 63 63 63 63 63 64 62 62 62 61 61 60 60 60 60 58 56 53 48 45 42 42 43 44 45 45 45 45 46 47 48 56 56 55 56 56 56 55 54 54 52 52 51 51 51 51 51 51 50 50 50 50 50 50 49 47 45 46 48 47 45 44 45 45 45 43 43 42 43 44 43 41 42 42 42 43 42 42
62 61 63 63 64 63 63 64 64 63 63 63 63 62 61 61 60 59 60 60 60 59 59 57 56 55 53 52 50 44 43 43 44 44 44 45 46 56 57 56 55 56 54 54 53 54 53 52 52 52 51 50 50 50 50 49 49 51 51 49 49 46 44 46 47 48 46 44 46 46 46 45 43 43 41 43 42 42 41 42 42 42 43 43 45
62 61 61 63 64 64 64 64 63 62 63 63 64 63 62 61 61 59 58 59 60 59 59 59 58 57 55 53 52 51 49 44 44 44 45 45 51 57 57 56 56 54 54 54 54 53 52 52 52 51 52 50 50 49 48 50 47 47 46 50 49 47 47 46 49 49 49 46 45 45 44 45 43 42 42 42 42 42 42 43 41 41 41 42 43
63 64 64 64 63 64 63 63 63 62 62 63 63 62 61 60 60 59 58 59 59 59 59 59 58 57 55 54 54 52 52 52 53 53 54 55 56 57 56 56 55 55 54 55 54 53 53 52 51 51 50 49 48 48 46 46 46 45 47 47 46 46 46 46 48 49 46 46 45 44 44 43 43 42 43 42 42 43 42 41 43 41 41 41 39
62 63 63 63 62 61 62 63 62 63 62 62 62 62 61 60 60 60 57 58 59 59 58 58 58 57 55 56 54 54 54 55 54 54 55 55 57 57 57 56 55 55 55 56 54 54 53 51 51 50 50 50 48 47 47 48 48 47 48 44 44 47 47 46 47 47 45 46 45 44 44 44 44 43 44 42 41 42 44 43 42 44 42 39 39
63 63 64 62 61 61 62 62 62 62 63 62 62 62 62 61 61 60 59 57 59 59 59 58 58 57 56 55 51 52 56 56 56 56 55 56 57 57 56 55 55 56 56 55 55 54 52 50 49 49 49 49 49 48 48 47 46 47 44 43 45 46 44 46 47 46 45 46 45 44 44 44 42 42 42 43 46 45 43 43 42 41 41 42 40
63 62 63 63 62 62 59 59 62 63 63 63 63 61 61 61 61 60 59 58 56 58 58 58 58 57 52 49 47 47 55 57 57 57 58 57 57 56 55 55 55 56 54 53 54 52 49 50 47 48 49 50 48 49 48 47 47 45 44 44 46 44 42 43 46 46 46 45 45 44 45 44 43 42 43 47 42 42 43 41 42 40 41 41 42
63 60 61 61 61 62 59 58 60 62 62 62 62 62 62 61 61 61 60 58 57 55 58 58 57 56 54 49 50 48 56 57 58 57 56 55 56 56 55 55 55 55 53 52 50 48 47 47 47 48 49 50 50 49 47 47 47 45 44 45 44 43 42 43 45 45 45 45 45 45 45 43 42 41 43 43 42 42 42 42 41 40 41 39 41
60 60 60 60 61 60 60 58 58 59 60 62 61 62 61 62 61 61 60 59 58 56 55 56 58 57 55 52 50 51 55 57 57 55 55 54 55 55 55 57 54 51 49 49 48 47 47 48 47 49 52 50 51 52 48 47 47 46 45 45 44 44 43 43 44 44 44 44 44 44 44 43 42 41 43 42 43 42 43 42 41 41 40 40 40
60 60 58 58 60 60 60 60 58 60 59 58 61 61 61 60 60 60 60 59 59 57 54 54 54 57 56 53 54 54 55 56 54 54 55 55 56 57 56 54 52 51 49 50 49 50 50 48 48 50 51 51 51 50 49 48 49 49 46 46 46 44 43 44 44 44 43 45 43 43 43 42 41 40 41 42 42 42 41 42 42 44 41 40 40
60 59 58 56 56 57 57 59 59 60 60 59 58 58 57 58 58 59 59 58 58 57 56 54 55 55 56 55 54 54 56 55 55 55 56 56 56 55 54 52 51 51 50 50 51 52 50 51 50 50 52 52 52 50 49 50 49 49 48 48 46 46 45 44 43 43 43 45 43 43 42 42 41 40 42 42 40 41 42 43 43 41 41 41 41
61 61 58 58 55 55 56 59 57 57 58 57 57 59 58 58 57 56 56 55 55 57 55 55 54 54 55 56 55 56 56 55 56 55 57 57 57 55 55 52 49 50 50 51 54 52 52 52 51 52 53 53 52 53 50 49 49 48 48 47 47 47 46 44 43 44 43 44 44 42 42 41 41 42 41 41 41 41 43 42 42 43 42 41 39
61 60 60 60 59 56 55 56 56 58 56 56 57 58 57 57 59 57 56 57 57 56 56 55 56 56 55 56 56 56 56 56 56 55 55 56 56 55 54 53 51 50 50 51 52 53 52 52 52 53 54 54 54 53 51 50 50 49 48 49 47 46 45 42 46 45 45 44 44 44 43 41 40 40 40 42 42 42 42 41 42 40 42 40 39
62 60 59 59 59 59 57 55 55 55 55 55 56 56 55 55 56 56 56 57 56 57 58 56 55 55 57 56 56 56 56 55 55 55 54 54 55 55 54 53 53 51 50 49 51 53 54 53 53 54 53 55 55 54 53 52 50 50 49 48 46 42 40 40 42 45 41 44 43 43 43 42 42 42 42 42 42 42 41 42 42 40 41 40 39
63 62 60 59 59 59 60 58 57 56 55 55 55 56 56 56 55 54 55 54 55 56 57 57 56 56 56 56 56 56 55 55 55 55 55 54 54 54 53 53 53 52 51 50 51 52 53 55 55 55 55 56 56 56 53 52 51 50 49 50 43 41 41 41 42 41 42 43 42 42 42 42 42 42 42 42 42 42 42 41 42 41 42 40 40
63 63 64 63 61 60 60 60 59 59 58 58 56 55 55 55 55 55 56 55 54 54 54 55 57 56 56 56 56 57 57 57 56 55 55 55 54 54 53 53 52 53 53 51 51 52 54 54 54 55 55 55 55 55 54 52 52 50 46 44 42 40 39 40 48 39 39 39 43 41 41 42 43 42 41 41 41 41 43 42 42 41 41 40 40